Time,TemperatureF,DewpointF,PressureIn,WindDirection,WindDirectionDegrees,WindSpeedMPH,WindSpeedGustMPH,Humidity,HourlyPrecipIn,Conditions,Clouds,dailyrainin,SoftwareType,DateUTC
2013-09-03 00:02:00,63.1,63.0,29.75,SSE,165,1.0,2.0,99,0.00,,,0.00,weatherlink.com 1.10,2013-09-03 04:02:00,
2013-09-03 00:17:00,63.0,63.0,29.75,SSE,165,0.0,2.0,99,0.00,,,0.00,weatherlink.com 1.10,2013-09-03 04:17:00,
2013-09-03 00:32:00,63.0,63.0,29.74,SSE,165,1.0,2.0,99,0.00,,,0.00,weatherlink.com 1.10,2013-09-03 04:32:00,
2013-09-03 00:47:00,63.0,63.0,29.73,SSE,165,1.0,1.0,99,0.00,,,0.00,weatherlink.com 1.10,2013-09-03 04:47:00,
2013-09-03 01:03:00,62.9,63.0,29.74,ESE,119,3.0,4.0,99,0.00,,,0.00,weatherlink.com 1.10,2013-09-03 05:03:00,
2013-09-03 01:18:00,62.8,63.0,29.73,SSW,200,2.0,4.0,99,0.00,,,0.00,weatherlink.com 1.10,2013-09-03 05:18:00,
2013-09-03 01:33:00,62.8,63.0,29.73,ESE,116,1.0,2.0,99,0.00,,,0.00,weatherlink.com 1.10,2013-09-03 05:33:00,
2013-09-03 01:48:00,62.7,63.0,29.73,SSW,193,0.0,2.0,99,0.00,,,0.00,weatherlink.com 1.10,2013-09-03 05:48:00,
2013-09-03 02:03:00,62.6,62.0,29.73,SE,131,1.0,3.0,99,0.00,,,0.00,weatherlink.com 1.10,2013-09-03 06:03:00,
2013-09-03 02:18:00,62.5,62.0,29.73,ESE,111,1.0,2.0,99,0.00,,,0.00,weatherlink.com 1.10,2013-09-03 06:18:00,
2013-09-03 02:33:00,62.3,62.0,29.73,SE,125,0.0,2.0,99,0.00,,,0.00,weatherlink.com 1.10,2013-09-03 06:33:00,
2013-09-03 02:48:00,62.3,62.0,29.73,SE,125,0.0,1.0,99,0.00,,,0.00,weatherlink.com 1.10,2013-09-03 06:48:00,
2013-09-03 03:03:00,62.2,62.0,29.74,SE,125,0.0,3.0,99,0.00,,,0.00,weatherlink.com 1.10,2013-09-03 07:03:00,
2013-09-03 03:18:00,62.1,62.0,29.73,SE,125,0.0,2.0,99,0.00,,,0.00,weatherlink.com 1.10,2013-09-03 07:18:00,
2013-09-03 03:33:00,61.8,62.0,29.73,ESE,107,1.0,3.0,99,0.00,,,0.00,weatherlink.com 1.10,2013-09-03 07:33:00,
2013-09-03 03:48:00,61.6,61.0,29.72,ESE,107,0.0,3.0,99,0.00,,,0.00,weatherlink.com 1.10,2013-09-03 07:48:00,
2013-09-03 04:03:00,61.5,61.0,29.73,ESE,111,3.0,4.0,99,0.00,,,0.00,weatherlink.com 1.10,2013-09-03 08:03:00,
2013-09-03 04:18:00,61.2,61.0,29.72,East,93,1.0,3.0,99,0.00,,,0.00,weatherlink.com 1.10,2013-09-03 08:18:00,
2013-09-03 04:33:00,61.1,61.0,29.73,SE,126,0.0,2.0,99,0.01,,,0.01,weatherlink.com 1.10,2013-09-03 08:33:00,
2013-09-03 04:48:00,61.1,61.0,29.74,SE,126,2.0,3.0,99,0.01,,,0.01,weatherlink.com 1.10,2013-09-03 08:48:00,
2013-09-03 05:03:00,60.9,61.0,29.73,SSW,213,3.0,7.0,99,0.01,,,0.01,weatherlink.com 1.10,2013-09-03 09:03:00,
2013-09-03 05:18:00,60.9,61.0,29.73,ESE,117,2.0,3.0,99,0.01,,,0.01,weatherlink.com 1.10,2013-09-03 09:18:00,
2013-09-03 05:33:00,61.1,61.0,29.74,SSE,159,0.0,3.0,99,0.00,,,0.01,weatherlink.com 1.10,2013-09-03 09:33:00,
2013-09-03 05:48:00,61.1,61.0,29.74,SSE,159,0.0,2.0,99,0.00,,,0.01,weatherlink.com 1.10,2013-09-03 09:48:00,
2013-09-03 06:03:00,61.1,61.0,29.74,SSE,165,1.0,4.0,99,0.00,,,0.01,weatherlink.com 1.10,2013-09-03 10:03:00,
2013-09-03 06:18:00,61.1,61.0,29.75,SSE,165,1.0,2.0,99,0.00,,,0.01,weatherlink.com 1.10,2013-09-03 10:18:00,
2013-09-03 06:33:00,61.2,61.0,29.74,SE,128,2.0,2.0,99,0.00,,,0.01,weatherlink.com 1.10,2013-09-03 10:33:00,
2013-09-03 06:48:00,61.3,61.0,29.75,South,178,0.0,1.0,100,0.00,,,0.01,weatherlink.com 1.10,2013-09-03 10:48:00,
2013-09-03 07:03:00,61.3,61.0,29.76,East,93,0.0,2.0,99,0.00,,,0.01,weatherlink.com 1.10,2013-09-03 11:03:00,
2013-09-03 07:18:00,61.5,61.0,29.77,West,281,1.0,4.0,99,0.00,,,0.01,weatherlink.com 1.10,2013-09-03 11:18:00,
2013-09-03 07:33:00,61.6,61.0,29.77,NNW,342,4.0,4.0,99,0.00,,,0.01,weatherlink.com 1.10,2013-09-03 11:33:00,
2013-09-03 07:48:00,61.9,62.0,29.78,South,190,1.0,3.0,99,0.00,,,0.01,weatherlink.com 1.10,2013-09-03 11:48:00,
2013-09-03 08:03:00,62.0,62.0,29.78,WNW,299,2.0,2.0,99,0.00,,,0.01,weatherlink.com 1.10,2013-09-03 12:03:00,
2013-09-03 08:18:00,61.8,62.0,29.79,ESE,109,0.0,2.0,99,0.00,,,0.01,weatherlink.com 1.10,2013-09-03 12:18:00,
2013-09-03 08:33:00,61.6,61.0,29.79,SE,127,3.0,3.0,99,0.00,,,0.01,weatherlink.com 1.10,2013-09-03 12:33:00,
2013-09-03 08:48:00,61.3,61.0,29.79,ENE,72,1.0,2.0,98,0.00,,,0.01,weatherlink.com 1.10,2013-09-03 12:48:00,
2013-09-03 09:03:00,61.4,61.0,29.80,ENE,72,0.0,2.0,99,0.00,,,0.01,weatherlink.com 1.10,2013-09-03 13:03:00,
2013-09-03 09:18:00,61.1,60.0,29.80,East,88,2.0,5.0,95,0.00,,,0.01,weatherlink.com 1.10,2013-09-03 13:18:00,
2013-09-03 09:33:00,60.4,60.0,29.80,NNW,340,2.0,5.0,97,0.00,,,0.01,weatherlink.com 1.10,2013-09-03 13:33:00,
2013-09-03 09:48:00,60.6,58.0,29.80,WNW,292,1.0,4.0,92,0.00,,,0.01,weatherlink.com 1.10,2013-09-03 13:48:00,
2013-09-03 10:03:00,60.7,60.0,29.80,SE,138,2.0,3.0,96,0.00,,,0.01,weatherlink.com 1.10,2013-09-03 14:03:00,
2013-09-03 10:18:00,60.9,60.0,29.80,SE,142,0.0,3.0,96,0.00,,,0.01,weatherlink.com 1.10,2013-09-03 14:18:00,
2013-09-03 10:33:00,61.6,60.0,29.80,WNW,292,0.0,2.0,94,0.00,,,0.01,weatherlink.com 1.10,2013-09-03 14:33:00,
2013-09-03 10:48:00,62.3,60.0,29.80,ESE,118,0.0,6.0,93,0.00,,,0.01,weatherlink.com 1.10,2013-09-03 14:48:00,
2013-09-03 11:03:00,62.8,60.0,29.80,SE,144,0.0,4.0,89,0.00,,,0.01,weatherlink.com 1.10,2013-09-03 15:03:00,
2013-09-03 11:18:00,63.4,60.0,29.80,SE,133,4.0,5.0,89,0.00,,,0.01,weatherlink.com 1.10,2013-09-03 15:18:00,
2013-09-03 11:33:00,65.2,59.0,29.79,NNW,331,1.0,3.0,79,0.00,,,0.01,weatherlink.com 1.10,2013-09-03 15:33:00,
2013-09-03 11:49:00,66.9,59.0,29.78,WSW,252,3.0,6.0,77,0.00,,,0.01,weatherlink.com 1.10,2013-09-03 15:49:00,
2013-09-03 12:04:00,67.7,59.0,29.78,NNW,340,1.0,6.0,74,0.00,,,0.01,weatherlink.com 1.10,2013-09-03 16:04:00,
2013-09-03 12:19:00,67.4,58.0,29.78,ENE,68,3.0,9.0,71,0.00,,,0.01,weatherlink.com 1.10,2013-09-03 16:19:00,
2013-09-03 12:34:00,67.7,59.0,29.77,NNE,14,2.0,9.0,73,0.00,,,0.01,weatherlink.com 1.10,2013-09-03 16:34:00,
2013-09-03 12:49:00,67.9,59.0,29.77,North,355,3.0,6.0,72,0.00,,,0.01,weatherlink.com 1.10,2013-09-03 16:49:00,
2013-09-03 13:04:00,69.5,60.0,29.77,NNE,33,1.0,6.0,71,0.00,,,0.01,weatherlink.com 1.10,2013-09-03 17:04:00,
2013-09-03 13:19:00,70.1,56.0,29.78,West,281,4.0,9.0,62,0.00,,,0.01,weatherlink.com 1.10,2013-09-03 17:19:00,
2013-09-03 13:34:00,71.1,57.0,29.77,NW,313,3.0,9.0,61,0.00,,,0.01,weatherlink.com 1.10,2013-09-03 17:34:00,
2013-09-03 13:49:00,69.2,56.0,29.78,WSW,246,6.0,14.0,64,0.00,,,0.01,weatherlink.com 1.10,2013-09-03 17:49:00,
2013-09-03 14:04:00,70.7,56.0,29.77,NNW,344,5.0,11.0,60,0.00,,,0.01,weatherlink.com 1.10,2013-09-03 18:04:00,
2013-09-03 14:19:00,70.6,55.0,29.77,NW,319,5.0,11.0,59,0.00,,,0.01,weatherlink.com 1.10,2013-09-03 18:19:00,
2013-09-03 14:34:00,71.1,55.0,29.77,East,91,3.0,12.0,58,0.00,,,0.01,weatherlink.com 1.10,2013-09-03 18:34:00,
2013-09-03 14:49:00,70.2,55.0,29.77,NW,313,1.0,6.0,58,0.00,,,0.01,weatherlink.com 1.10,2013-09-03 18:49:00,
2013-09-03 15:04:00,70.2,56.0,29.76,WNW,296,6.0,11.0,60,0.00,,,0.01,weatherlink.com 1.10,2013-09-03 19:04:00,
2013-09-03 15:19:00,70.8,54.0,29.77,WSW,241,6.0,13.0,55,0.00,,,0.01,weatherlink.com 1.10,2013-09-03 19:19:00,
2013-09-03 15:34:00,71.0,56.0,29.77,East,97,2.0,10.0,60,0.00,,,0.01,weatherlink.com 1.10,2013-09-03 19:34:00,
2013-09-03 15:49:00,71.3,56.0,29.77,WSW,247,5.0,8.0,58,0.00,,,0.01,weatherlink.com 1.10,2013-09-03 19:49:00,
2013-09-03 16:04:00,70.4,57.0,29.77,NNE,13,2.0,5.0,63,0.00,,,0.01,weatherlink.com 1.10,2013-09-03 20:04:00,
2013-09-03 16:19:00,69.7,56.0,29.77,NNW,343,2.0,6.0,62,0.00,,,0.01,weatherlink.com 1.10,2013-09-03 20:19:00,
2013-09-03 16:34:00,68.9,56.0,29.78,West,259,1.0,5.0,64,0.00,,,0.01,weatherlink.com 1.10,2013-09-03 20:34:00,
2013-09-03 16:49:00,67.9,57.0,29.78,North,355,2.0,7.0,69,0.00,,,0.01,weatherlink.com 1.10,2013-09-03 20:49:00,
2013-09-03 17:04:00,67.2,57.0,29.79,North,351,4.0,8.0,71,0.00,,,0.01,weatherlink.com 1.10,2013-09-03 21:04:00,
2013-09-03 17:19:00,66.8,57.0,29.79,North,355,1.0,9.0,70,0.00,,,0.01,weatherlink.com 1.10,2013-09-03 21:19:00,
2013-09-03 17:34:00,66.4,58.0,29.80,ESE,113,7.0,10.0,73,0.00,,,0.01,weatherlink.com 1.10,2013-09-03 21:34:00,
2013-09-03 17:49:00,65.8,57.0,29.80,NNE,31,4.0,12.0,72,0.00,,,0.01,weatherlink.com 1.10,2013-09-03 21:49:00,
2013-09-03 18:04:00,65.8,57.0,29.80,WSW,253,0.0,3.0,74,0.00,,,0.01,weatherlink.com 1.10,2013-09-03 22:04:00,
2013-09-03 18:19:00,65.4,58.0,29.80,NW,304,2.0,5.0,77,0.00,,,0.01,weatherlink.com 1.10,2013-09-03 22:19:00,
2013-09-03 18:34:00,64.7,57.0,29.81,West,261,5.0,8.0,77,0.00,,,0.01,weatherlink.com 1.10,2013-09-03 22:34:00,
2013-09-03 18:49:00,63.3,57.0,29.81,NW,321,2.0,7.0,79,0.00,,,0.01,weatherlink.com 1.10,2013-09-03 22:49:00,
2013-09-03 19:04:00,63.2,58.0,29.81,NNE,18,1.0,8.0,82,0.00,,,0.01,weatherlink.com 1.10,2013-09-03 23:04:00,
2013-09-03 19:19:00,62.5,57.0,29.82,ESE,103,1.0,5.0,82,0.00,,,0.01,weatherlink.com 1.10,2013-09-03 23:19:00,
2013-09-03 19:34:00,61.7,57.0,29.82,ENE,71,1.0,7.0,83,0.00,,,0.01,weatherlink.com 1.10,2013-09-03 23:34:00,
2013-09-03 19:49:00,61.4,58.0,29.83,NW,309,0.0,6.0,87,0.00,,,0.01,weatherlink.com 1.10,2013-09-03 23:49:00,
2013-09-03 20:04:00,61.2,57.0,29.84,North,5,1.0,6.0,86,0.00,,,0.01,weatherlink.com 1.10,2013-09-04 00:04:00,
2013-09-03 20:19:00,60.2,57.0,29.84,NNE,23,1.0,5.0,89,0.00,,,0.01,weatherlink.com 1.10,2013-09-04 00:19:00,
2013-09-03 20:34:00,59.6,57.0,29.85,WSW,243,4.0,7.0,92,0.00,,,0.01,weatherlink.com 1.10,2013-09-04 00:34:00,
2013-09-03 20:49:00,61.4,57.0,29.85,ENE,63,4.0,5.0,86,0.00,,,0.01,weatherlink.com 1.10,2013-09-04 00:49:00,
2013-09-03 21:04:00,61.8,56.0,29.85,NNW,336,0.0,4.0,82,0.00,,,0.01,weatherlink.com 1.10,2013-09-04 01:04:00,
2013-09-03 21:19:00,61.9,56.0,29.85,West,272,3.0,8.0,81,0.00,,,0.01,weatherlink.com 1.10,2013-09-04 01:19:00,
2013-09-03 21:34:00,61.6,56.0,29.85,NE,39,0.0,7.0,82,0.00,,,0.01,weatherlink.com 1.10,2013-09-04 01:34:00,
2013-09-03 21:49:00,61.7,56.0,29.85,West,263,4.0,11.0,81,0.00,,,0.01,weatherlink.com 1.10,2013-09-04 01:49:00,
2013-09-03 22:04:00,61.5,56.0,29.85,East,96,2.0,5.0,82,0.00,,,0.01,weatherlink.com 1.10,2013-09-04 02:04:00,
2013-09-03 22:19:00,61.4,56.0,29.85,NNE,19,2.0,5.0,83,0.00,,,0.01,weatherlink.com 1.10,2013-09-04 02:19:00,
2013-09-03 22:34:00,60.9,56.0,29.85,NNE,17,0.0,3.0,84,0.00,,,0.01,weatherlink.com 1.10,2013-09-04 02:34:00,
2013-09-03 22:49:00,59.0,56.0,29.86,South,188,2.0,4.0,89,0.00,,,0.01,weatherlink.com 1.10,2013-09-04 02:49:00,
2013-09-03 23:05:00,59.1,56.0,29.86,SE,139,1.0,8.0,89,0.00,,,0.01,weatherlink.com 1.10,2013-09-04 03:05:00,
2013-09-03 23:20:00,60.0,55.0,29.86,NNW,346,2.0,9.0,84,0.00,,,0.01,weatherlink.com 1.10,2013-09-04 03:20:00,
2013-09-03 23:35:00,59.9,56.0,29.86,WSW,244,2.0,10.0,86,0.00,,,0.01,weatherlink.com 1.10,2013-09-04 03:35:00,
2013-09-03 23:50:00,60.3,56.0,29.86,NNE,21,6.0,10.0,85,0.00,,,0.01,weatherlink.com 1.10,2013-09-04 03:50:00,